Home > Weather > Río Grande > Past weeks

Flag for Argentina Past Weather in Río Grande, Tierra del Fuego, Argentina — Yesterday and Last 2 Weeks

Now
43 °F

Quite cool.


Feels Like: 37 °F
Forecast: 42 / 46 °F
Wind: 9 mph from Northwest

Location: Rio Grande B. A.

Current Time: May 28, 2016 at 3:04:34 AM

Latest Report: May 28, 2016 at 1:00 AM


Visibility: N/A

Pressure: 30.18 "Hg

Humidity: 87%

Dew Point: 39 °F

Location of Río GrandeLocation

Past Weather in Río Grande — Graph

°F

Río Grande Temperature Yesterday

Maximum temperature yesterday: 43 °F (at 1:00 PM)
Minimum temperature yesterday: 34 °F (at 9:00 AM)
Average temperature yesterday: 39 °F

High & Low Weather Summary for the Past Weeks

 TemperatureHumidityPressure
High50 °F (May 23, 2:00 PM)100% (May 13, 1:00 AM)30.69 "Hg (May 13, 1:00 AM)
Low-69 °F (May 26, 11:00 AM)58% (May 23, 2:00 PM)29.47 "Hg (May 21, 3:00 AM)
Average36 °F90%30.14 "Hg
* Reported May 13 1:00 AM — May 28 1:00 AM, Río Grande, Weather by CustomWeather, © 2016

Note: Actual official high and low records may vary slightly from our data, if they occured in-between our weather recording intervals... More about our weather records

Advertising

Río Grande Weather History for the Previous 24 Hours

Scroll right to see more
 ConditionsComfort  
Time TempWeatherWind HumidityBarometerVisibility
1:00 AM
Sat, May 28
43 °FQuite cool.9 mph87%30.18 "HgN/A
12:00 AM43 °FQuite cool.9 mph87%30.18 "HgN/A
10:00 PM
Fri, May 27
41 °FOvercast.8 mph93%30.21 "HgN/A
9:00 PM41 °FFog.9 mph93%30.21 "HgN/A
8:00 PM41 °FFog.6 mph93%30.21 "Hg5 mi
5:00 PM41 °FFog.8 mph93%30.21 "Hg4 mi
4:00 PM41 °FFog.6 mph93%30.24 "Hg5 mi
3:00 PM43 °FFog.9 mph93%30.30 "HgN/A
2:00 PM43 °FFog.9 mph93%30.24 "HgN/A
1:00 PM43 °FFog.8 mph93%30.27 "Hg5 mi
12:00 PM41 °FFog.8 mph100%30.30 "HgN/A
11:00 AM39 °FFog.5 mph93%30.30 "HgN/A
10:00 AM36 °FFog.No wind93%30.30 "HgN/A
9:00 AM34 °FPartly sunny.2 mph100%30.30 "HgN/A
8:00 AM36 °FPassing clouds.No wind93%30.30 "HgN/A
7:00 AM36 °FPassing clouds.2 mph93%30.33 "HgN/A
4:00 AM36 °FPassing clouds.No wind100%30.36 "HgN/A
3:00 AM37 °FPassing clouds.5 mph93%30.39 "HgN/A
Weather by CustomWeather, © 2016

See weather overviewHow to use our weather pages